Terminal Aerodrome Forecast
Issued by NWS

Home | Current Version | Previous Version | Text Only | Print | Product List | Glossary On
Versions: 1 2 3 4 5 6 7 8 9 10 11 12 13 14 15
000
FTUS41 KBGM 251130
TAFELM
TAF
KELM 251130Z 2512/2612 VRB03KT P6SM BKN100
     FM251400 23007KT P6SM SCT120
     FM251600 23010G18KT P6SM SCT120 BKN200
     FM252300 23005KT P6SM SCT050 BKN100=

USA.gov is the U.S. government's official web portal to all federal, state and local government web resources and services.